sat.trackr.live / text

‹ back to catalog

LEMUR-2-ARIANNA

NORAD 62699 · 2025-009CU

PAYLOAD ACTIVE UNKNOWN

§ Identity

Operator
Country
US
Launch date
2025-01-14
Launch site
AFWTR
Launch vehicle
Mass (kg)
RCS (m²)

Purposes: earth_obs

External: N2YO · Heavens-Above · Gunter

§ Orbital elements

Epoch: 2026-09-19T03:46:39.664128Z

Period
95.77 min
Inclination
97.6828°
Eccentricity
0.0003473
Mean motion
15.03603901 rev/d
Perigee alt
553.4 km
Apogee alt
558.2 km
Semi-major
6,933.9 km
B*
2.3694e-4
RAAN
342.8172°
Arg perigee
132.4597°
Mean anomaly
227.6922°
Rev number
9,167

§ Raw data

LEMUR-2-ARIANNA1 62699U 25009CU  26262.15740352  .00003178  00000+0  23694-3 0  99982 62699  97.6828 342.8172 0003473 132.4597 227.6922 15.03603901 91670

JSON: /api/v1/satellites/62699 · /tle

For live sub-satellite position, see the globe view (requires WebGL).

§ Visibility from observer

Set your observer location to see the next 7 days of passes ≥ 10°. The values pass through the URL so the page stays shareable.

No JS? Fill the form by hand. The geolocation button needs JavaScript.